This demonstration page uses our WeatherBlox Daily Observations layout. Learn more.

Left ArrowRight Arrow

Hourly Observations for July 1, 2022

Temp ( °F °C ) Dew Point ( °F °C ) Humidity (%) Winds ( mph kmh ) Pressure ( in mb ) Visibility ( mi km ) Precip ( " mm )
12:53 am 00:53 Clear 71 21.7 70 21.1 96 96 Calm 30.12 1020 10 16 0.01 0.25
1:53 am 01:53 Clear 71 21.7 70 21.1 96 96 Calm 30.11 1020 10 16 0.00 0.00
2:53 am 02:53 Partly Cloudy 71 21.7 69 20.6 94 94 Calm 30.11 1020 10 16 0.00 0.00
3:53 am 03:53 Clear 72 22.2 70 21.1 94 94 Calm 30.09 1019 10 16 0.00 0.00
4:53 am 04:53 Partly Cloudy 72 22.2 70 21.1 94 94 Calm 30.09 1019 10 16 0.00 0.00
5:53 am 05:53 Clear 72 22.2 70 21.1 94 94 Calm 30.09 1019 10 16 0.00 0.00
6:53 am 06:53 Sunny 71 21.7 70 21.1 96 96 Calm 30.11 1020 10 16 0.00 0.00
7:53 am 07:53 Mostly Cloudy 73 22.8 71 21.7 94 94 Calm 30.13 1020 10 16 0.00 0.00
8:53 am 08:53 Mostly Cloudy 76 24.4 72 22.2 88 88 NE 3 6 30.13 1020 10 16 0.00 0.00
9:06 am 09:06 Mostly Cloudy 76 24.4 72 22.2 88 88 E 3 6 30.12 1020 10 16 0.00 0.00
9:33 am 09:33 Cloudy 76 24.4 71 21.7 85 85 Calm 30.13 1020 10 16 0.00 0.00
9:48 am 09:48 Cloudy 75 24 72 22 89 89 NNE 5 7 30.14 1021 10 16 0.00 0.00
9:53 am 09:53 Cloudy 76 24.4 72 22.2 88 88 NNE 5 7 30.14 1021 10 16 0.00 0.00
10:27 am 10:27 Mostly Cloudy 77 25 73 22.8 88 88 VRB 3 6 30.12 1020 10 16 0.00 0.00
10:41 am 10:41 Cloudy 77 25 72 22.2 85 85 ENE 5 7 30.12 1020 10 16 0.00 0.00
10:53 am 10:53 Cloudy 78 25.6 72 22.2 82 82 E 6 9 30.14 1021 10 16 0.00 0.00
11:13 am 11:13 Cloudy 78 25.6 72 22.2 82 82 ENE 6 9 30.12 1020 10 16 0.00 0.00
11:53 am 11:53 Mostly Cloudy 79 26.1 73 22.8 82 82 N 5 7 30.13 1020 10 16 0.00 0.00
12:53 pm 12:53 Mostly Cloudy with Nearby Thunderstorms 81 27.2 73 22.8 77 77 N 9 15 30.11 1020 10 16 0.00 0.00
1:42 pm 13:42 Partly Cloudy 76 24.4 69 20.6 79 79 ESE 6 9 30.09 1019 10 16 0.00 0.00
1:53 pm 13:53 Mostly Sunny 77 25 68 20 74 74 SE 5 7 30.10 1019 10 16 0.00 0.00
2:53 pm 14:53 Mostly Sunny 78 25.6 70 21.1 76 76 VRB 3 6 30.07 1018 10 16 0.00 0.00
3:53 pm 15:53 Sunny 79 26.1 71 21.7 77 77 SSE 5 7 30.05 1018 10 16 0.00 0.00
4:53 pm 16:53 Mostly Sunny 83 28.3 70 21.1 65 65 SSW 7 11 30.04 1017 10 16 0.00 0.00
5:53 pm 17:53 Sunny 84 28.9 69 20.6 61 61 SSE 3 6 30.02 1017 10 16 0.00 0.00
6:53 pm 18:53 Sunny 83 28.3 69 20.6 63 63 SSW 6 9 30.02 1017 10 16 0.00 0.00
7:53 pm 19:53 Sunny 82 27.8 69 20.6 65 65 S 5 7 30.02 1017 10 16 0.00 0.00
8:53 pm 20:53 Clear 80 26.7 71 21.7 74 74 SSW 5 7 30.03 1017 10 16 0.00 0.00
9:53 pm 21:53 Clear 78 25.6 72 22.2 82 82 SSW 3 6 30.05 1018 10 16 0.00 0.00
10:53 pm 22:53 Clear 75 23.9 72 22.2 90 90 Calm 30.05 1018 10 16 0.00 0.00
11:53 pm 23:53 Clear 74 23.3 71 21.7 91 91 Calm 30.05 1018 10 16 0.00 0.00

Powered by AerisWeather